Weather History for Marrakech, Morocco

Change the Weather History Date:

Thursday, December 29, 2011

  Actual Average Record
Temperature  
Mean Temperature 52 °F -  
Max Temperature 67 °F 63 °F 75 °F (2010)
Min Temperature 38 °F 42 °F 35 °F (2004)
Degree Days  
Heating Degree Days 12    
Growing Degree Days 2 (Base 50)    
Moisture  
Dew Point 40 °F    
Average Humidity 69    
Maximum Humidity 93    
Minimum Humidity 32    
Precipitation  
Precipitation 0.00 in 0.04 in - ()
Sea Level Pressure  
Sea Level Pressure 30.42 in    
Wind  
Wind Speed 3 mph ()    
Max Wind Speed 7 mph    
Max Gust Speed -    
Visibility 3.7 miles    
Events      
Averages and records for this station are not official NWS values.
T = Trace of Precipitation, MM = Missing Value Source: Averaged Metar Reports

Daily Weather History Graph

Daily Weather History Graph

Search for Another Location

Airport:

Trip Planner

Search our weather history database for the weather conditions in past years. The results will help you decide how hot, cold, wet, or windy it might be!

Date:

Astronomy

Dec. 29, 2011 Rise Set
Actual Time 7:30 AM WET 5:37 PM WET
Civil Twilight 7:03 AM WET 6:04 PM WET
Nautical Twilight 6:33 AM WET 6:34 PM WET
Astronomical Twilight 6:03 AM WET 7:04 PM WET
Moon 10:36 AM WET (12/29) 10:40 PM WET (12/29)
Length of Visible Light 11h 00m
Length of Day
10h 06m
Waxing Crescent, 24% of the Moon is Illuminated
Dec 29
Waxing Crescent
Jan 1
First Quarter
Jan 9
Full
Jan 16
Last Quarter
Jan 23
New

Hourly Weather History & Observations

Time (WET) Temp. Windchill Dew Point Humidity Pressure Visibility Wind Dir Wind Speed Gust Speed Precip Events Conditions
12:00 AM 46.4 °F 45.2 °F 42.8 °F 87% 30.39 in 3.1 mi ESE 3.5 mph - N/A   Unknown
12:30 AM 44.6 °F - 41.0 °F 87% 30.39 in - WSW 2.3 mph - N/A   Unknown
1:00 AM 42.8 °F - 39.2 °F 87% 30.39 in - Variable 2.3 mph - N/A   Unknown
1:30 AM 42.8 °F - 41.0 °F 93% 30.39 in - Variable 2.3 mph - N/A   Unknown
2:00 AM 41.0 °F 38.0 °F 39.2 °F 93% 30.39 in - East 4.6 mph - N/A   Unknown
2:30 AM 41.0 °F 39.0 °F 39.2 °F 93% 30.39 in - ENE 3.5 mph - N/A   Unknown
3:00 AM 42 °F - 40 °F 88% 30.44 in 3 mi ESE 4.6 mph - -  
3:00 AM 42.8 °F 40.1 °F 41.0 °F 93% 30.39 in 2.8 mi ESE 4.6 mph - N/A   Unknown
3:30 AM 41.0 °F 39.0 °F 39.2 °F 93% 30.39 in - East 3.5 mph - N/A   Unknown
4:00 AM 41.0 °F 39.0 °F 39.2 °F 93% 30.39 in 3.1 mi East 3.5 mph - N/A   Unknown
4:30 AM 39.2 °F 37.0 °F 37.4 °F 93% 30.39 in 3.1 mi East 3.5 mph - N/A   Unknown
5:00 AM 41.0 °F 39.0 °F 37.4 °F 87% 30.39 in 3.1 mi SSE 3.5 mph - N/A   Unknown
5:30 AM 39.2 °F - 37.4 °F 93% 30.39 in 3.1 mi SE 2.3 mph - N/A   Unknown
6:00 AM 39 °F - 38 °F 92% 30.48 in 3 mi NNW 2.3 mph - -  
6:00 AM 39.2 °F - 37.4 °F 93% 30.42 in 3.1 mi NNW 2.3 mph - N/A   Unknown
6:30 AM 39.2 °F - 37.4 °F 93% 30.42 in - North 1.2 mph - N/A   Unknown
7:00 AM 39.2 °F - 37.4 °F 93% 30.45 in 3.1 mi Calm Calm - N/A   Unknown
7:20 AM 41.0 °F 39.0 °F 39.2 °F 93% 30.45 in - SE 3.5 mph - N/A   Mist
8:00 AM 42.8 °F 38.6 °F 39.2 °F 87% 30.45 in - South 6.9 mph - N/A   Mist
8:13 AM 44.6 °F 43.1 °F 39.2 °F 81% 30.45 in 2.8 mi South 3.5 mph - N/A   Mist
8:30 AM 44.6 °F - 39.2 °F 81% 30.45 in 2.8 mi Variable 2.3 mph - N/A   Mist
8:47 AM 47 °F - 42 °F 75% 30.50 in 3 mi ENE 3.5 mph - -   Mist
9:00 AM 46.4 °F 45.2 °F 41.0 °F 81% 30.48 in 2.8 mi ENE 3.5 mph - N/A   Mist
9:30 AM 51.8 °F - 42.8 °F 71% 30.48 in - Calm Calm - N/A   Unknown
10:00 AM 55.4 °F - 42.8 °F 63% 30.48 in 2.8 mi Variable 2.3 mph - N/A   Unknown
10:30 AM 59.0 °F - 44.6 °F 59% 30.48 in - Variable 1.2 mph - N/A   Unknown
11:00 AM 60.8 °F - 44.6 °F 55% 30.48 in - Variable 2.3 mph - N/A   Mist
11:30 AM 60.8 °F - 44.6 °F 55% 30.45 in 1.9 mi North 3.5 mph - N/A   Mist
11:45 AM 61 °F - 45 °F 44% 30.44 in 2 mi North 5.8 mph - -   Mist
12:00 PM 60.8 °F - 44.6 °F 55% 30.45 in - North 5.8 mph - N/A   Mist
12:30 PM 62.6 °F - 44.6 °F 52% 30.42 in - North 4.6 mph - N/A   Mist
1:00 PM 62.6 °F - 44.6 °F 52% 30.42 in - North 5.8 mph - N/A   Mist
2:48 PM 66 °F - 44 °F 34% 30.36 in 4 mi NW 3.5 mph - -   Clear
3:00 PM 66.2 °F - 42.8 °F 43% 30.39 in 3.7 mi NW 3.5 mph - N/A   Unknown
3:30 PM 66.2 °F - 44.6 °F 46% 30.39 in 3.7 mi NNW 3.5 mph - N/A   Scattered Clouds
4:00 PM 66.2 °F - 42.8 °F 43% 30.39 in 3.7 mi NNW 4.6 mph - N/A   Scattered Clouds
4:30 PM 66.2 °F - 42.8 °F 43% 30.39 in 3.7 mi NNW 4.6 mph - N/A   Scattered Clouds
5:00 PM 66.2 °F - 42.8 °F 43% 30.39 in 4.3 mi NNE 3.5 mph - N/A   Partly Cloudy
5:30 PM 64.4 °F - 39.2 °F 40% 30.39 in 5.0 mi North 4.6 mph - N/A   Partly Cloudy
5:45 PM 60 °F - 38 °F 32% 30.38 in 5 mi North 4.6 mph - -   Scattered Clouds
6:00 PM 60.8 °F - 37.4 °F 42% 30.39 in 5.0 mi North 4.6 mph - N/A   Partly Cloudy
6:30 PM 57.2 °F - 37.4 °F 48% 30.39 in 5.0 mi NNE 3.5 mph - N/A   Partly Cloudy
7:00 PM 55.4 °F - 37.4 °F 51% 30.39 in 3.1 mi NNE 3.5 mph - N/A   Partly Cloudy
7:30 PM 53.6 °F - 35.6 °F 51% 30.42 in 4.3 mi NE 5.8 mph - N/A   Partly Cloudy
8:00 PM 51.8 °F - 35.6 °F 54% 30.42 in 4.3 mi ENE 5.8 mph - N/A   Unknown
8:30 PM 51.8 °F - 33.8 °F 50% 30.42 in 5.0 mi ENE 5.8 mph - N/A   Unknown
9:00 PM 51 °F - 36 °F 44% 30.46 in 5 mi East 5.8 mph - -  
9:00 PM 51.8 °F - 35.6 °F 54% 30.45 in 5.0 mi East 5.8 mph - N/A   Unknown
9:30 PM 48.2 °F - 37.4 °F 66% 30.45 in 5.0 mi ESE 5.8 mph - N/A   Unknown
10:00 PM 48.2 °F - 39.2 °F 71% 30.45 in 5.0 mi East 5.8 mph - N/A   Unknown
10:30 PM 48.2 °F - 41.0 °F 76% 30.45 in 3.7 mi NNE 3.5 mph - N/A   Unknown
11:00 PM 46.4 °F 45.2 °F 41.0 °F 81% 30.45 in 3.7 mi ENE 3.5 mph - N/A   Unknown
11:30 PM 46.4 °F 44.3 °F 41.0 °F 81% 30.45 in 3.1 mi NNE 4.6 mph - N/A   Unknown